Time,TemperatureF,DewpointF,PressureIn,WindDirection,WindDirectionDegrees,WindSpeedMPH,WindSpeedGustMPH,Humidity,HourlyPrecipIn,Conditions,Clouds,dailyrainin,SoftwareType,DateUTC
2013-03-02 00:00:00,39.4,31.5,29.88,NW,313,0.0,2.0,73,0.00,,,0.00,Wunderground v.1.15,2013-03-02 05:00:00,
2013-03-02 00:10:00,38.7,31.1,29.87,NW,313,0.0,2.0,74,0.00,,,0.00,Wunderground v.1.15,2013-03-02 05:10:00,
2013-03-02 00:20:00,38.1,31.2,29.88,NW,313,0.0,2.0,76,0.00,,,0.00,Wunderground v.1.15,2013-03-02 05:20:00,
2013-03-02 00:25:00,37.9,31.0,29.88,NW,313,0.0,2.0,76,0.00,,,0.00,Wunderground v.1.15,2013-03-02 05:25:00,
2013-03-02 00:35:00,37.6,30.7,29.89,NW,313,0.0,2.0,76,0.00,,,0.00,Wunderground v.1.15,2013-03-02 05:35:00,
2013-03-02 00:40:00,37.4,30.8,29.89,NW,313,0.0,2.0,77,0.00,,,0.00,Wunderground v.1.15,2013-03-02 05:40:00,
2013-03-02 00:50:00,37.0,30.8,29.89,NW,313,0.0,2.0,78,0.00,,,0.00,Wunderground v.1.15,2013-03-02 05:50:00,
2013-03-02 00:55:00,36.7,30.5,29.89,NW,313,0.0,2.0,78,0.00,,,0.00,Wunderground v.1.15,2013-03-02 05:55:00,
2013-03-02 01:00:00,36.6,30.4,29.89,NW,313,0.0,2.0,78,0.00,,,0.00,Wunderground v.1.15,2013-03-02 06:00:00,
2013-03-02 01:05:00,36.5,30.3,29.90,NW,313,0.0,2.0,78,0.00,,,0.00,Wunderground v.1.15,2013-03-02 06:05:00,
2013-03-02 01:10:00,36.3,30.4,29.90,NW,313,0.0,2.0,79,0.00,,,0.00,Wunderground v.1.15,2013-03-02 06:10:00,
2013-03-02 01:15:00,36.1,30.2,29.90,NW,313,0.0,2.0,79,0.00,,,0.00,Wunderground v.1.15,2013-03-02 06:15:00,
2013-03-02 01:25:00,35.7,29.8,29.90,NW,313,0.0,2.0,79,0.00,,,0.00,Wunderground v.1.15,2013-03-02 06:25:00,
2013-03-02 01:30:00,35.6,30.0,29.90,NW,313,0.0,2.0,80,0.00,,,0.00,Wunderground v.1.15,2013-03-02 06:30:00,
2013-03-02 01:35:00,35.3,29.7,29.89,NW,313,0.0,2.0,80,0.00,,,0.00,Wunderground v.1.15,2013-03-02 06:35:00,
2013-03-02 01:40:00,35.2,29.6,29.90,NW,313,0.0,2.0,80,0.00,,,0.00,Wunderground v.1.15,2013-03-02 06:40:00,
2013-03-02 01:45:00,35.1,29.9,29.90,NW,313,0.0,2.0,81,0.00,,,0.00,Wunderground v.1.15,2013-03-02 06:45:00,
2013-03-02 01:55:00,34.9,29.7,29.90,NW,313,0.0,2.0,81,0.00,,,0.00,Wunderground v.1.15,2013-03-02 06:55:00,
2013-03-02 02:00:00,34.8,29.6,29.89,NW,313,0.0,2.0,81,0.00,,,0.00,Wunderground v.1.15,2013-03-02 07:00:00,
2013-03-02 02:05:00,34.7,29.8,29.89,NW,313,0.0,2.0,82,0.00,,,0.00,Wunderground v.1.15,2013-03-02 07:05:00,
2013-03-02 02:10:00,34.6,29.7,29.89,NW,313,0.0,2.0,82,0.00,,,0.00,Wunderground v.1.15,2013-03-02 07:10:00,
2013-03-02 02:15:00,34.5,29.6,29.89,NW,313,0.0,2.0,82,0.00,,,0.00,Wunderground v.1.15,2013-03-02 07:15:00,
2013-03-02 02:20:00,34.4,29.5,29.89,NW,313,0.0,2.0,82,0.00,,,0.00,Wunderground v.1.15,2013-03-02 07:20:00,
2013-03-02 02:30:00,34.4,29.5,29.89,NW,313,0.0,2.0,82,0.00,,,0.00,Wunderground v.1.15,2013-03-02 07:30:00,
2013-03-02 02:35:00,34.4,29.5,29.89,NW,313,0.0,2.0,82,0.00,,,0.00,Wunderground v.1.15,2013-03-02 07:35:00,
2013-03-02 02:40:00,34.4,29.5,29.89,NW,313,0.0,2.0,82,0.00,,,0.00,Wunderground v.1.15,2013-03-02 07:40:00,
2013-03-02 02:45:00,34.3,29.1,29.88,NW,313,0.0,2.0,81,0.00,,,0.00,Wunderground v.1.15,2013-03-02 07:45:00,
2013-03-02 02:50:00,34.3,29.4,29.88,NW,313,0.0,2.0,82,0.00,,,0.00,Wunderground v.1.15,2013-03-02 07:50:00,
2013-03-02 02:55:00,34.2,29.3,29.88,NW,313,0.0,2.0,82,0.00,,,0.00,Wunderground v.1.15,2013-03-02 07:55:00,
2013-03-02 03:00:00,34.1,29.2,29.88,NW,313,0.0,2.0,82,0.00,,,0.00,Wunderground v.1.15,2013-03-02 08:00:00,
2013-03-02 03:05:00,34.1,29.2,29.88,NW,313,0.0,2.0,82,0.00,,,0.00,Wunderground v.1.15,2013-03-02 08:05:00,
2013-03-02 03:10:00,34.0,29.1,29.88,NW,313,0.0,2.0,82,0.00,,,0.00,Wunderground v.1.15,2013-03-02 08:10:00,
2013-03-02 03:15:00,33.9,29.0,29.88,NW,313,0.0,2.0,82,0.00,,,0.00,Wunderground v.1.15,2013-03-02 08:15:00,
2013-03-02 03:20:00,33.9,29.0,29.88,NW,313,0.0,2.0,82,0.00,,,0.00,Wunderground v.1.15,2013-03-02 08:20:00,
2013-03-02 03:30:00,33.7,28.8,29.87,NW,313,0.0,2.0,82,0.00,,,0.00,Wunderground v.1.15,2013-03-02 08:30:00,
2013-03-02 03:35:00,33.6,28.7,29.87,NW,313,0.0,2.0,82,0.00,,,0.00,Wunderground v.1.15,2013-03-02 08:35:00,
2013-03-02 03:40:00,33.5,28.6,29.87,NW,313,0.0,2.0,82,0.00,,,0.00,Wunderground v.1.15,2013-03-02 08:40:00,
2013-03-02 03:45:00,33.4,28.5,29.87,NW,313,0.0,2.0,82,0.00,,,0.00,Wunderground v.1.15,2013-03-02 08:45:00,
2013-03-02 03:50:00,33.3,28.4,29.87,NW,313,0.0,2.0,82,0.00,,,0.00,Wunderground v.1.15,2013-03-02 08:50:00,
2013-03-02 03:55:00,33.2,28.6,29.87,NW,313,0.0,2.0,83,0.00,,,0.00,Wunderground v.1.15,2013-03-02 08:55:00,
2013-03-02 04:00:00,33.2,28.6,29.87,NW,313,0.0,2.0,83,0.00,,,0.00,Wunderground v.1.15,2013-03-02 09:00:00,
2013-03-02 04:05:00,33.1,28.8,29.87,NW,313,0.0,2.0,84,0.00,,,0.00,Wunderground v.1.15,2013-03-02 09:05:00,
2013-03-02 04:10:00,33.0,28.7,29.87,NW,313,0.0,2.0,84,0.00,,,0.00,Wunderground v.1.15,2013-03-02 09:10:00,
2013-03-02 04:15:00,33.0,28.7,29.87,NW,313,0.0,2.0,84,0.00,,,0.00,Wunderground v.1.15,2013-03-02 09:15:00,
2013-03-02 04:20:00,33.0,29.0,29.87,NW,313,0.0,2.0,85,0.00,,,0.00,Wunderground v.1.15,2013-03-02 09:20:00,
2013-03-02 04:25:00,33.0,29.0,29.87,NW,313,0.0,2.0,85,0.00,,,0.00,Wunderground v.1.15,2013-03-02 09:25:00,
2013-03-02 04:35:00,33.1,29.1,29.87,NW,313,0.0,2.0,85,0.00,,,0.00,Wunderground v.1.15,2013-03-02 09:35:00,
2013-03-02 04:45:00,33.2,29.2,29.87,NW,313,0.0,2.0,85,0.00,,,0.00,Wunderground v.1.15,2013-03-02 09:45:00,
2013-03-02 04:50:00,33.2,29.2,29.87,NW,313,0.0,2.0,85,0.00,,,0.00,Wunderground v.1.15,2013-03-02 09:50:00,
2013-03-02 04:55:00,33.3,29.3,29.87,NW,313,0.0,2.0,85,0.00,,,0.00,Wunderground v.1.15,2013-03-02 09:55:00,
2013-03-02 05:00:00,33.4,29.4,29.87,NW,313,0.0,2.0,85,0.00,,,0.00,Wunderground v.1.15,2013-03-02 10:00:00,
2013-03-02 05:15:00,33.6,29.6,29.87,NW,313,0.0,2.0,85,0.00,,,0.00,Wunderground v.1.15,2013-03-02 10:15:00,
2013-03-02 05:20:00,33.7,29.7,29.86,NW,313,0.0,2.0,85,0.00,,,0.00,Wunderground v.1.15,2013-03-02 10:20:00,
2013-03-02 05:25:00,33.8,29.8,29.86,NW,313,0.0,2.0,85,0.00,,,0.00,Wunderground v.1.15,2013-03-02 10:25:00,
2013-03-02 05:30:00,33.8,29.8,29.86,NW,313,0.0,2.0,85,0.00,,,0.00,Wunderground v.1.15,2013-03-02 10:30:00,
2013-03-02 05:35:00,33.8,29.8,29.86,NW,313,0.0,2.0,85,0.00,,,0.00,Wunderground v.1.15,2013-03-02 10:35:00,
2013-03-02 05:45:00,33.8,29.8,29.86,NW,313,0.0,2.0,85,0.00,,,0.00,Wunderground v.1.15,2013-03-02 10:45:00,
2013-03-02 05:50:00,33.9,29.9,29.86,NW,313,0.0,2.0,85,0.00,,,0.00,Wunderground v.1.15,2013-03-02 10:50:00,
2013-03-02 05:55:00,33.8,29.5,29.86,NW,313,0.0,2.0,84,0.00,,,0.00,Wunderground v.1.15,2013-03-02 10:55:00,
2013-03-02 06:00:00,33.8,29.5,29.87,NW,313,0.0,2.0,84,0.00,,,0.00,Wunderground v.1.15,2013-03-02 11:00:00,
2013-03-02 06:10:00,33.8,29.5,29.87,NW,313,0.0,2.0,84,0.00,,,0.00,Wunderground v.1.15,2013-03-02 11:10:00,
2013-03-02 06:15:00,33.8,29.2,29.87,NW,313,0.0,2.0,83,0.00,,,0.00,Wunderground v.1.15,2013-03-02 11:15:00,
2013-03-02 06:20:00,33.9,29.3,29.88,NW,313,0.0,2.0,83,0.00,,,0.00,Wunderground v.1.15,2013-03-02 11:20:00,
2013-03-02 06:30:00,33.9,29.3,29.88,NW,313,0.0,2.0,83,0.00,,,0.00,Wunderground v.1.15,2013-03-02 11:30:00,
2013-03-02 06:40:00,34.0,29.4,29.89,NW,313,0.0,2.0,83,0.00,,,0.00,Wunderground v.1.15,2013-03-02 11:40:00,
2013-03-02 06:45:00,34.0,29.4,29.88,NW,313,0.0,2.0,83,0.00,,,0.00,Wunderground v.1.15,2013-03-02 11:45:00,
2013-03-02 06:50:00,34.1,29.5,29.89,NW,313,0.0,2.0,83,0.00,,,0.00,Wunderground v.1.15,2013-03-02 11:50:00,
2013-03-02 06:55:00,34.0,29.4,29.89,NW,313,0.0,2.0,83,0.00,,,0.00,Wunderground v.1.15,2013-03-02 11:55:00,
2013-03-02 07:00:00,34.0,29.4,29.89,NW,313,0.0,2.0,83,0.00,,,0.00,Wunderground v.1.15,2013-03-02 12:00:00,
2013-03-02 07:05:00,34.0,29.4,29.88,NW,313,0.0,2.0,83,0.00,,,0.00,Wunderground v.1.15,2013-03-02 12:05:00,
2013-03-02 07:15:00,34.1,29.5,29.88,NW,313,0.0,2.0,83,0.00,,,0.00,Wunderground v.1.15,2013-03-02 12:15:00,
2013-03-02 07:20:00,34.2,29.9,29.88,NW,313,0.0,2.0,84,0.00,,,0.00,Wunderground v.1.15,2013-03-02 12:20:00,
2013-03-02 07:25:00,34.2,29.9,29.87,NW,313,0.0,2.0,84,0.00,,,0.00,Wunderground v.1.15,2013-03-02 12:25:00,
2013-03-02 07:30:00,34.3,30.0,29.88,NW,313,0.0,2.0,84,0.00,,,0.00,Wunderground v.1.15,2013-03-02 12:30:00,
2013-03-02 07:35:00,34.3,30.0,29.88,NW,313,0.0,2.0,84,0.00,,,0.00,Wunderground v.1.15,2013-03-02 12:35:00,
2013-03-02 07:45:00,34.4,30.1,29.88,NW,313,0.0,2.0,84,0.00,,,0.00,Wunderground v.1.15,2013-03-02 12:45:00,
2013-03-02 07:50:00,34.4,30.1,29.88,NW,313,0.0,2.0,84,0.00,,,0.00,Wunderground v.1.15,2013-03-02 12:50:00,
2013-03-02 07:55:00,34.4,29.8,29.88,NW,313,0.0,2.0,83,0.00,,,0.00,Wunderground v.1.15,2013-03-02 12:55:00,
2013-03-02 08:00:00,34.4,29.8,29.88,NW,313,0.0,2.0,83,0.00,,,0.00,Wunderground v.1.15,2013-03-02 13:00:00,
2013-03-02 08:05:00,34.4,29.8,29.89,NW,313,0.0,2.0,83,0.00,,,0.00,Wunderground v.1.15,2013-03-02 13:05:00,
2013-03-02 08:15:00,34.8,30.2,29.89,NW,313,0.0,2.0,83,0.00,,,0.00,Wunderground v.1.15,2013-03-02 13:15:00,
2013-03-02 08:20:00,35.0,30.4,29.89,NW,313,0.0,2.0,83,0.00,,,0.00,Wunderground v.1.15,2013-03-02 13:20:00,
2013-03-02 08:25:00,35.2,30.0,29.89,NW,313,0.0,2.0,81,0.00,,,0.00,Wunderground v.1.15,2013-03-02 13:25:00,
2013-03-02 08:30:00,35.5,29.9,29.88,NW,313,0.0,2.0,80,0.00,,,0.00,Wunderground v.1.15,2013-03-02 13:30:00,
2013-03-02 08:35:00,35.8,30.2,29.89,NW,313,0.0,2.0,80,0.00,,,0.00,Wunderground v.1.15,2013-03-02 13:35:00,
2013-03-02 08:45:00,36.2,30.3,29.88,NW,313,0.0,2.0,79,0.00,,,0.00,Wunderground v.1.15,2013-03-02 13:45:00,
2013-03-02 08:50:00,36.4,30.5,29.88,NW,313,0.0,2.0,79,0.00,,,0.00,Wunderground v.1.15,2013-03-02 13:50:00,
2013-03-02 08:55:00,36.6,30.7,29.88,NW,313,0.0,2.0,79,0.00,,,0.00,Wunderground v.1.15,2013-03-02 13:55:00,
2013-03-02 09:00:00,36.8,30.6,29.89,NW,313,0.0,2.0,78,0.00,,,0.00,Wunderground v.1.15,2013-03-02 14:00:00,
2013-03-02 09:10:00,37.0,30.5,29.88,NW,313,0.0,2.0,77,0.00,,,0.00,Wunderground v.1.15,2013-03-02 14:10:00,
2013-03-02 09:20:00,37.3,30.7,29.88,NW,313,0.0,2.0,77,0.00,,,0.00,Wunderground v.1.15,2013-03-02 14:20:00,
2013-03-02 09:25:00,37.4,30.5,29.88,NW,313,0.0,2.0,76,0.00,,,0.00,Wunderground v.1.15,2013-03-02 14:25:00,
2013-03-02 09:30:00,37.5,30.3,29.88,NW,313,0.0,2.0,75,0.00,,,0.00,Wunderground v.1.15,2013-03-02 14:30:00,
2013-03-02 09:35:00,37.7,30.5,29.88,NW,313,0.0,2.0,75,0.00,,,0.00,Wunderground v.1.15,2013-03-02 14:35:00,
2013-03-02 09:40:00,37.8,30.6,29.88,NW,313,0.0,2.0,75,0.00,,,0.00,Wunderground v.1.15,2013-03-02 14:40:00,
2013-03-02 09:50:00,38.1,30.5,29.87,NW,313,0.0,2.0,74,0.00,,,0.00,Wunderground v.1.15,2013-03-02 14:50:00,
2013-03-02 09:55:00,38.3,30.4,29.87,NW,313,0.0,2.0,73,0.00,,,0.00,Wunderground v.1.15,2013-03-02 14:55:00,
2013-03-02 10:00:00,38.4,30.5,29.87,NW,313,0.0,2.0,73,0.00,,,0.00,Wunderground v.1.15,2013-03-02 15:00:00,
2013-03-02 10:05:00,38.6,30.4,29.87,NW,313,0.0,2.0,72,0.00,,,0.00,Wunderground v.1.15,2013-03-02 15:05:00,
2013-03-02 10:10:00,38.8,30.9,29.87,NW,313,0.0,2.0,73,0.00,,,0.00,Wunderground v.1.15,2013-03-02 15:10:00,
2013-03-02 10:20:00,39.1,30.5,29.87,NW,313,0.0,2.0,71,0.00,,,0.00,Wunderground v.1.15,2013-03-02 15:20:00,
2013-03-02 10:25:00,39.2,30.6,29.87,NW,313,0.0,2.0,71,0.00,,,0.00,Wunderground v.1.15,2013-03-02 15:25:00,
2013-03-02 10:30:00,39.6,31.0,29.87,NW,313,0.0,2.0,71,0.00,,,0.00,Wunderground v.1.15,2013-03-02 15:30:00,
2013-03-02 10:35:00,40.4,30.7,29.87,NW,313,0.0,2.0,68,0.00,,,0.00,Wunderground v.1.15,2013-03-02 15:35:00,
2013-03-02 10:40:00,40.8,30.7,29.87,NW,313,0.0,2.0,67,0.00,,,0.00,Wunderground v.1.15,2013-03-02 15:40:00,
2013-03-02 10:50:00,40.8,27.6,29.86,NW,313,0.0,2.0,59,0.00,,,0.00,Wunderground v.1.15,2013-03-02 15:50:00,
2013-03-02 11:00:00,41.1,27.9,29.87,NW,313,0.0,2.0,59,0.00,,,0.00,Wunderground v.1.15,2013-03-02 16:00:00,
2013-03-02 11:10:00,41.4,28.9,29.86,NW,313,0.0,2.0,61,0.00,,,0.00,Wunderground v.1.15,2013-03-02 16:10:00,
2013-03-02 11:15:00,41.5,27.8,29.86,NW,317,0.0,2.0,58,0.00,,,0.00,Wunderground v.1.15,2013-03-02 16:15:00,
2013-03-02 11:25:00,42.2,27.6,29.86,NW,313,0.0,2.0,56,0.00,,,0.00,Wunderground v.1.15,2013-03-02 16:25:00,
2013-03-02 11:30:00,42.7,28.9,29.85,NW,316,0.0,2.0,58,0.00,,,0.00,Wunderground v.1.15,2013-03-02 16:30:00,
2013-03-02 11:35:00,43.1,28.5,29.85,NW,318,0.0,2.0,56,0.00,,,0.00,Wunderground v.1.15,2013-03-02 16:35:00,
2013-03-02 11:40:00,43.3,29.1,29.85,NNW,348,0.0,2.0,57,0.00,,,0.00,Wunderground v.1.15,2013-03-02 16:40:00,
2013-03-02 11:45:00,43.3,28.2,29.85,NNW,336,0.0,2.0,55,0.00,,,0.00,Wunderground v.1.15,2013-03-02 16:45:00,
2013-03-02 11:50:00,43.1,28.0,29.85,NNW,336,0.0,2.0,55,0.00,,,0.00,Wunderground v.1.15,2013-03-02 16:50:00,
2013-03-02 12:00:00,43.4,28.3,29.85,SSW,210,0.0,2.0,55,0.00,,,0.00,Wunderground v.1.15,2013-03-02 17:00:00,
2013-03-02 12:05:00,43.3,28.2,29.85,West,274,0.0,2.0,55,0.00,,,0.00,Wunderground v.1.15,2013-03-02 17:05:00,
2013-03-02 12:10:00,43.4,27.8,29.85,SSW,209,0.0,2.0,54,0.00,,,0.00,Wunderground v.1.15,2013-03-02 17:10:00,
2013-03-02 12:15:00,43.5,28.4,29.85,SSW,209,0.0,2.0,55,0.00,,,0.00,Wunderground v.1.15,2013-03-02 17:15:00,
2013-03-02 12:25:00,43.6,27.6,29.84,North,360,0.0,2.0,53,0.00,,,0.00,Wunderground v.1.15,2013-03-02 17:25:00,
2013-03-02 12:30:00,43.6,27.6,29.84,North,360,0.0,2.0,53,0.00,,,0.00,Wunderground v.1.15,2013-03-02 17:30:00,
2013-03-02 12:35:00,44.3,28.2,29.84,NW,325,1.0,2.0,53,0.00,,,0.00,Wunderground v.1.15,2013-03-02 17:35:00,
2013-03-02 12:45:00,45.3,27.7,29.83,North,355,1.0,2.0,50,0.00,,,0.00,Wunderground v.1.15,2013-03-02 17:45:00,
2013-03-02 12:55:00,45.5,28.9,29.83,South,176,1.0,1.0,52,0.00,,,0.00,Wunderground v.1.15,2013-03-02 17:55:00,
2013-03-02 13:05:00,46.0,28.4,29.82,ENE,71,0.0,0.0,50,0.00,,,0.00,Wunderground v.1.15,2013-03-02 18:05:00,
2013-03-02 13:15:00,45.6,29.4,29.82,SSE,148,0.0,0.0,53,0.00,,,0.00,Wunderground v.1.15,2013-03-02 18:15:00,
2013-03-02 13:20:00,45.7,28.6,29.82,WNW,283,0.0,0.0,51,0.00,,,0.00,Wunderground v.1.15,2013-03-02 18:20:00,
2013-03-02 13:30:00,45.6,29.0,29.82,WNW,283,0.0,1.0,52,0.00,,,0.00,Wunderground v.1.15,2013-03-02 18:30:00,
2013-03-02 13:35:00,45.4,27.8,29.82,North,355,1.0,1.0,50,0.00,,,0.00,Wunderground v.1.15,2013-03-02 18:35:00,
2013-03-02 13:40:00,45.4,28.8,29.82,North,355,1.0,1.0,52,0.00,,,0.00,Wunderground v.1.15,2013-03-02 18:40:00,
2013-03-02 13:50:00,45.6,29.4,29.81,ESE,103,0.0,0.0,53,0.00,,,0.00,Wunderground v.1.15,2013-03-02 18:50:00,
2013-03-02 14:00:00,46.0,29.8,29.81,ESE,109,0.0,0.0,53,0.00,,,0.00,Wunderground v.1.15,2013-03-02 19:00:00,
2013-03-02 14:05:00,46.3,29.6,29.81,ESE,106,0.0,0.0,52,0.00,,,0.00,Wunderground v.1.15,2013-03-02 19:05:00,
2013-03-02 14:15:00,46.6,29.4,29.81,South,174,0.0,0.0,51,0.00,,,0.00,Wunderground v.1.15,2013-03-02 19:15:00,
2013-03-02 14:20:00,47.1,30.4,29.81,South,173,0.0,0.0,52,0.00,,,0.00,Wunderground v.1.15,2013-03-02 19:20:00,
2013-03-02 14:25:00,47.8,29.5,29.80,North,9,0.0,0.0,49,0.00,,,0.00,Wunderground v.1.15,2013-03-02 19:25:00,
2013-03-02 14:30:00,47.7,29.5,29.80,South,187,0.0,0.0,49,0.00,,,0.00,Wunderground v.1.15,2013-03-02 19:30:00,
2013-03-02 14:35:00,47.8,29.5,29.80,South,188,0.0,1.0,49,0.00,,,0.00,Wunderground v.1.15,2013-03-02 19:35:00,
2013-03-02 14:45:00,47.5,29.8,29.80,North,360,0.0,1.0,50,0.00,,,0.00,Wunderground v.1.15,2013-03-02 19:45:00,
2013-03-02 14:55:00,47.6,29.9,29.80,NNW,331,0.0,0.0,50,0.00,,,0.00,Wunderground v.1.15,2013-03-02 19:55:00,
2013-03-02 15:00:00,47.6,29.9,29.80,NNW,331,0.0,0.0,50,0.00,,,0.00,Wunderground v.1.15,2013-03-02 20:00:00,
2013-03-02 15:05:00,47.4,29.7,29.80,NNW,331,0.0,1.0,50,0.00,,,0.00,Wunderground v.1.15,2013-03-02 20:05:00,
2013-03-02 15:15:00,47.1,29.4,29.80,NNE,19,0.0,1.0,50,0.00,,,0.00,Wunderground v.1.15,2013-03-02 20:15:00,
2013-03-02 15:20:00,47.0,29.3,29.80,ENE,68,0.0,1.0,50,0.00,,,0.00,Wunderground v.1.15,2013-03-02 20:20:00,
2013-03-02 15:30:00,47.2,30.0,29.80,SW,229,0.0,1.0,51,0.00,,,0.00,Wunderground v.1.15,2013-03-02 20:30:00,
2013-03-02 15:35:00,47.2,30.0,29.80,SW,229,0.0,1.0,51,0.00,,,0.00,Wunderground v.1.15,2013-03-02 20:35:00,
2013-03-02 15:45:00,47.1,29.9,29.79,SSE,157,0.0,1.0,51,0.00,,,0.00,Wunderground v.1.15,2013-03-02 20:45:00,
2013-03-02 15:50:00,47.4,30.2,29.80,North,350,0.0,1.0,51,0.00,,,0.00,Wunderground v.1.15,2013-03-02 20:50:00,
2013-03-02 15:55:00,47.4,29.7,29.80,NW,323,0.0,1.0,50,0.00,,,0.00,Wunderground v.1.15,2013-03-02 20:55:00,
2013-03-02 16:00:00,47.3,29.6,29.80,NW,323,0.0,1.0,50,0.00,,,0.00,Wunderground v.1.15,2013-03-02 21:00:00,
2013-03-02 16:05:00,47.3,29.6,29.79,SW,233,0.0,1.0,50,0.00,,,0.00,Wunderground v.1.15,2013-03-02 21:05:00,
2013-03-02 16:10:00,47.3,29.6,29.80,SW,233,0.0,1.0,50,0.00,,,0.00,Wunderground v.1.15,2013-03-02 21:10:00,
2013-03-02 16:15:00,47.3,30.1,29.80,West,274,0.0,1.0,51,0.00,,,0.00,Wunderground v.1.15,2013-03-02 21:15:00,
2013-03-02 16:20:00,47.2,30.0,29.80,NW,306,0.0,1.0,51,0.00,,,0.00,Wunderground v.1.15,2013-03-02 21:20:00,
2013-03-02 16:25:00,47.1,29.9,29.80,NW,306,0.0,1.0,51,0.00,,,0.00,Wunderground v.1.15,2013-03-02 21:25:00,
2013-03-02 16:30:00,47.0,29.8,29.80,NW,306,0.0,1.0,51,0.00,,,0.00,Wunderground v.1.15,2013-03-02 21:30:00,
2013-03-02 16:35:00,47.0,30.3,29.80,WNW,284,0.0,1.0,52,0.00,,,0.00,Wunderground v.1.15,2013-03-02 21:35:00,
2013-03-02 16:40:00,46.9,30.6,29.80,WNW,285,0.0,1.0,53,0.00,,,0.00,Wunderground v.1.15,2013-03-02 21:40:00,
2013-03-02 16:50:00,46.8,30.6,29.80,West,261,0.0,1.0,53,0.00,,,0.00,Wunderground v.1.15,2013-03-02 21:50:00,
2013-03-02 16:55:00,46.7,30.9,29.80,West,261,0.0,1.0,54,0.00,,,0.00,Wunderground v.1.15,2013-03-02 21:55:00,
2013-03-02 17:00:00,46.6,30.8,29.80,West,261,0.0,1.0,54,0.00,,,0.00,Wunderground v.1.15,2013-03-02 22:00:00,
2013-03-02 17:05:00,46.5,30.3,29.80,West,261,0.0,1.0,53,0.00,,,0.00,Wunderground v.1.15,2013-03-02 22:05:00,
2013-03-02 17:10:00,46.4,30.6,29.80,WNW,291,0.0,1.0,54,0.00,,,0.00,Wunderground v.1.15,2013-03-02 22:10:00,
2013-03-02 17:15:00,46.4,31.1,29.80,SSE,167,0.0,1.0,55,0.00,,,0.00,Wunderground v.1.15,2013-03-02 22:15:00,
2013-03-02 17:20:00,46.4,30.6,29.80,SSE,167,0.0,1.0,54,0.00,,,0.00,Wunderground v.1.15,2013-03-02 22:20:00,
2013-03-02 17:25:00,46.3,30.1,29.80,SSE,167,0.0,1.0,53,0.00,,,0.00,Wunderground v.1.15,2013-03-02 22:25:00,
2013-03-02 17:30:00,46.3,30.5,29.81,SSE,167,0.0,1.0,54,0.00,,,0.00,Wunderground v.1.15,2013-03-02 22:30:00,
2013-03-02 17:35:00,46.3,30.1,29.81,SSE,167,0.0,1.0,53,0.00,,,0.00,Wunderground v.1.15,2013-03-02 22:35:00,
2013-03-02 17:40:00,46.2,30.5,29.81,SSE,167,0.0,1.0,54,0.00,,,0.00,Wunderground v.1.15,2013-03-02 22:40:00,
2013-03-02 17:50:00,46.1,30.4,29.81,SSE,168,0.0,1.0,54,0.00,,,0.00,Wunderground v.1.15,2013-03-02 22:50:00,
2013-03-02 17:55:00,46.0,30.3,29.81,SSE,168,0.0,1.0,54,0.00,,,0.00,Wunderground v.1.15,2013-03-02 22:55:00,
2013-03-02 18:05:00,45.9,31.5,29.81,SSE,168,0.0,1.0,57,0.00,,,0.00,Wunderground v.1.15,2013-03-02 23:05:00,
2013-03-02 18:10:00,45.8,31.9,29.81,SSE,168,0.0,1.0,58,0.00,,,0.00,Wunderground v.1.15,2013-03-02 23:10:00,
2013-03-02 18:15:00,45.6,31.7,29.82,SSE,168,0.0,1.0,58,0.00,,,0.00,Wunderground v.1.15,2013-03-02 23:15:00,
2013-03-02 18:20:00,45.5,32.8,29.82,SSE,168,0.0,1.0,61,0.00,,,0.00,Wunderground v.1.15,2013-03-02 23:20:00,
2013-03-02 18:25:00,45.3,32.6,29.82,SSE,168,0.0,1.0,61,0.00,,,0.00,Wunderground v.1.15,2013-03-02 23:25:00,
2013-03-02 18:30:00,45.1,32.4,29.82,SSE,168,0.0,1.0,61,0.00,,,0.00,Wunderground v.1.15,2013-03-02 23:30:00,
2013-03-02 18:35:00,45.0,32.8,29.82,SSE,168,0.0,1.0,62,0.00,,,0.00,Wunderground v.1.15,2013-03-02 23:35:00,
2013-03-02 18:40:00,44.9,32.7,29.83,SSE,168,0.0,1.0,62,0.00,,,0.00,Wunderground v.1.15,2013-03-02 23:40:00,
2013-03-02 18:45:00,44.7,33.3,29.83,SSE,168,0.0,1.0,64,0.00,,,0.00,Wunderground v.1.15,2013-03-02 23:45:00,
2013-03-02 18:55:00,44.3,33.3,29.83,SSE,168,0.0,1.0,65,0.00,,,0.00,Wunderground v.1.15,2013-03-02 23:55:00,
2013-03-02 19:00:00,44.2,33.2,29.83,SSE,168,0.0,1.0,65,0.00,,,0.00,Wunderground v.1.15,2013-03-03 00:00:00,
2013-03-02 19:05:00,44.0,33.4,29.83,SSE,168,0.0,1.0,66,0.00,,,0.00,Wunderground v.1.15,2013-03-03 00:05:00,
2013-03-02 19:10:00,43.8,33.2,29.83,SSE,168,0.0,1.0,66,0.00,,,0.00,Wunderground v.1.15,2013-03-03 00:10:00,
2013-03-02 19:15:00,43.7,33.1,29.83,SSE,168,0.0,1.0,66,0.00,,,0.00,Wunderground v.1.15,2013-03-03 00:15:00,
2013-03-02 19:20:00,43.6,33.7,29.83,SSE,168,0.0,1.0,68,0.00,,,0.00,Wunderground v.1.15,2013-03-03 00:20:00,
2013-03-02 19:30:00,43.3,33.4,29.83,SSE,168,0.0,1.0,68,0.00,,,0.00,Wunderground v.1.15,2013-03-03 00:30:00,
2013-03-02 19:35:00,43.2,33.3,29.84,SSE,168,0.0,1.0,68,0.00,,,0.00,Wunderground v.1.15,2013-03-03 00:35:00,
2013-03-02 19:45:00,43.1,33.3,29.84,SSE,168,0.0,1.0,68,0.00,,,0.00,Wunderground v.1.15,2013-03-03 00:45:00,
2013-03-02 19:55:00,42.9,33.1,29.84,SSE,168,0.0,1.0,68,0.00,,,0.00,Wunderground v.1.15,2013-03-03 00:55:00,
2013-03-02 20:05:00,42.8,33.0,29.84,SSE,168,0.0,1.0,68,0.00,,,0.00,Wunderground v.1.15,2013-03-03 01:05:00,
2013-03-02 20:10:00,42.7,33.2,29.84,SSE,168,0.0,1.0,69,0.00,,,0.00,Wunderground v.1.15,2013-03-03 01:10:00,
2013-03-02 20:15:00,42.7,32.9,29.84,SSE,168,0.0,1.0,68,0.00,,,0.00,Wunderground v.1.15,2013-03-03 01:15:00,
2013-03-02 20:20:00,42.6,32.4,29.84,SSE,168,0.0,1.0,67,0.00,,,0.00,Wunderground v.1.15,2013-03-03 01:20:00,
2013-03-02 20:25:00,42.5,31.9,29.84,SSE,168,0.0,1.0,66,0.00,,,0.00,Wunderground v.1.15,2013-03-03 01:25:00,
2013-03-02 20:30:00,42.5,31.6,29.84,SSE,168,0.0,1.0,65,0.00,,,0.00,Wunderground v.1.15,2013-03-03 01:30:00,
2013-03-02 20:35:00,42.4,31.8,29.85,SSE,168,0.0,1.0,66,0.00,,,0.00,Wunderground v.1.15,2013-03-03 01:35:00,
2013-03-02 20:40:00,42.4,32.2,29.85,SSE,168,0.0,1.0,67,0.00,,,0.00,Wunderground v.1.15,2013-03-03 01:40:00,
2013-03-02 20:45:00,42.4,31.8,29.85,SSE,168,0.0,1.0,66,0.00,,,0.00,Wunderground v.1.15,2013-03-03 01:45:00,
2013-03-02 20:50:00,42.3,31.7,29.85,SSE,168,0.0,1.0,66,0.00,,,0.00,Wunderground v.1.15,2013-03-03 01:50:00,
2013-03-02 21:00:00,42.1,31.6,29.86,SSE,168,0.0,0.0,66,0.00,,,0.00,Wunderground v.1.15,2013-03-03 02:00:00,
2013-03-02 21:05:00,42.0,31.5,29.86,SSE,168,0.0,0.0,66,0.00,,,0.00,Wunderground v.1.15,2013-03-03 02:05:00,
2013-03-02 21:10:00,41.9,31.7,29.87,SSE,168,0.0,0.0,67,0.00,,,0.00,Wunderground v.1.15,2013-03-03 02:10:00,
2013-03-02 21:15:00,41.7,31.5,29.87,SSE,168,0.0,0.0,67,0.00,,,0.00,Wunderground v.1.15,2013-03-03 02:15:00,
2013-03-02 21:20:00,41.6,31.8,29.87,SSE,168,0.0,0.0,68,0.00,,,0.00,Wunderground v.1.15,2013-03-03 02:20:00,
2013-03-02 21:25:00,41.4,31.6,29.87,SSE,168,0.0,0.0,68,0.00,,,0.00,Wunderground v.1.15,2013-03-03 02:25:00,
2013-03-02 21:35:00,41.1,31.0,29.87,SSE,168,0.0,0.0,67,0.00,,,0.00,Wunderground v.1.15,2013-03-03 02:35:00,
2013-03-02 21:40:00,40.9,30.4,29.88,SSE,168,0.0,0.0,66,0.00,,,0.00,Wunderground v.1.15,2013-03-03 02:40:00,
2013-03-02 21:45:00,40.8,30.3,29.88,SSE,168,0.0,0.0,66,0.00,,,0.00,Wunderground v.1.15,2013-03-03 02:45:00,
2013-03-02 21:50:00,40.8,30.3,29.88,SSE,168,0.0,0.0,66,0.00,,,0.00,Wunderground v.1.15,2013-03-03 02:50:00,
2013-03-02 21:55:00,40.8,29.9,29.88,SSE,168,0.0,1.0,65,0.00,,,0.00,Wunderground v.1.15,2013-03-03 02:55:00,
2013-03-02 22:05:00,40.7,29.1,29.88,SSE,168,0.0,0.0,63,0.00,,,0.00,Wunderground v.1.15,2013-03-03 03:05:00,
2013-03-02 22:10:00,40.6,28.6,29.88,SSE,168,0.0,0.0,62,0.00,,,0.00,Wunderground v.1.15,2013-03-03 03:10:00,
2013-03-02 22:15:00,40.5,28.1,29.89,South,172,0.0,0.0,61,0.00,,,0.00,Wunderground v.1.15,2013-03-03 03:15:00,
2013-03-02 22:20:00,40.3,27.5,29.89,North,360,1.0,2.0,60,0.00,,,0.00,Wunderground v.1.15,2013-03-03 03:20:00,
2013-03-02 22:25:00,40.1,27.3,29.89,North,355,1.0,2.0,60,0.00,,,0.00,Wunderground v.1.15,2013-03-03 03:25:00,
2013-03-02 22:35:00,39.8,26.6,29.89,WNW,300,0.0,3.0,59,0.00,,,0.00,Wunderground v.1.15,2013-03-03 03:35:00,
2013-03-02 22:40:00,39.6,26.0,29.90,NNW,336,1.0,1.0,58,0.00,,,0.00,Wunderground v.1.15,2013-03-03 03:40:00,
2013-03-02 22:45:00,39.4,25.8,29.90,NNW,347,1.0,1.0,58,0.00,,,0.00,Wunderground v.1.15,2013-03-03 03:45:00,
2013-03-02 22:55:00,39.0,25.0,29.90,North,355,1.0,1.0,57,0.00,,,0.00,Wunderground v.1.15,2013-03-03 03:55:00,
2013-03-02 23:00:00,38.8,24.9,29.90,North,11,0.0,0.0,57,0.00,,,0.00,Wunderground v.1.15,2013-03-03 04:00:00,
2013-03-02 23:05:00,38.6,24.7,29.90,North,11,0.0,0.0,57,0.00,,,0.00,Wunderground v.1.15,2013-03-03 04:05:00,
2013-03-02 23:10:00,38.4,24.5,29.90,North,360,0.0,0.0,57,0.00,,,0.00,Wunderground v.1.15,2013-03-03 04:10:00,
2013-03-02 23:15:00,38.2,24.3,29.90,North,5,0.0,1.0,57,0.00,,,0.00,Wunderground v.1.15,2013-03-03 04:15:00,
2013-03-02 23:20:00,37.9,23.6,29.90,North,10,0.0,2.0,56,0.00,,,0.00,Wunderground v.1.15,2013-03-03 04:20:00,
2013-03-02 23:25:00,37.6,23.3,29.90,North,355,0.0,2.0,56,0.00,,,0.00,Wunderground v.1.15,2013-03-03 04:25:00,
2013-03-02 23:30:00,37.4,23.1,29.90,North,355,0.0,1.0,56,0.00,,,0.00,Wunderground v.1.15,2013-03-03 04:30:00,
2013-03-02 23:40:00,37.0,23.2,29.90,North,360,0.0,0.0,57,0.00,,,0.00,Wunderground v.1.15,2013-03-03 04:40:00,
2013-03-02 23:45:00,36.8,23.4,29.90,North,9,0.0,0.0,58,0.00,,,0.00,Wunderground v.1.15,2013-03-03 04:45:00,
2013-03-02 23:50:00,36.6,23.6,29.90,North,9,0.0,0.0,59,0.00,,,0.00,Wunderground v.1.15,2013-03-03 04:50:00,
2013-03-02 23:55:00,36.4,23.4,29.89,North,9,0.0,1.0,59,0.00,,,0.00,Wunderground v.1.15,2013-03-03 04:55:00,